Temperatura ambiente en Pisuerga en Salinas de Pisuerga

 
Fecha y horaTemperatura ambiente (ºC)
30/10/2022 00:0010,95
30/10/2022 01:0011,30
30/10/2022 02:0011,55
30/10/2022 02:0011,50
30/10/2022 03:0011,15
30/10/2022 04:0011,10
30/10/2022 05:0011,00
30/10/2022 06:0010,60
30/10/2022 07:0010,45
30/10/2022 08:0010,45
30/10/2022 09:0011,15
30/10/2022 10:0012,20
30/10/2022 11:0013,00
30/10/2022 12:0013,10
30/10/2022 13:0013,60
30/10/2022 14:0012,05
30/10/2022 15:0013,55
30/10/2022 16:0013,65
30/10/2022 17:0012,75
30/10/2022 18:0010,65
30/10/2022 19:009,10
30/10/2022 20:009,20
30/10/2022 21:008,90
30/10/2022 22:009,60
30/10/2022 23:0010,35
31/10/2022 00:0010,10
31/10/2022 01:009,90
31/10/2022 02:0010,00
31/10/2022 03:009,60
31/10/2022 04:009,55
31/10/2022 05:009,35
31/10/2022 06:009,85
31/10/2022 07:009,60
31/10/2022 08:009,55
31/10/2022 09:009,60
31/10/2022 10:0010,95
31/10/2022 11:0011,55
31/10/2022 12:0012,65
31/10/2022 13:0013,40
31/10/2022 14:0013,60
31/10/2022 15:0013,80
31/10/2022 16:0013,70
31/10/2022 17:0013,20
31/10/2022 18:0013,10
31/10/2022 19:0012,60
31/10/2022 20:0011,10
31/10/2022 21:008,90
31/10/2022 22:006,90
31/10/2022 23:005,60
01/11/2022 00:004,70
01/11/2022 01:005,00
01/11/2022 02:005,75
01/11/2022 03:004,95
01/11/2022 04:004,40
01/11/2022 05:003,25
01/11/2022 06:002,40
01/11/2022 07:001,50
01/11/2022 08:001,60
01/11/2022 09:003,65
01/11/2022 10:009,15
01/11/2022 11:0010,75
01/11/2022 12:0011,20
01/11/2022 13:0011,95
01/11/2022 14:0012,90
01/11/2022 15:0013,15
01/11/2022 16:0012,55
01/11/2022 17:0011,55
01/11/2022 18:007,90
01/11/2022 19:005,65
01/11/2022 20:004,95
01/11/2022 21:003,65
01/11/2022 22:002,90
01/11/2022 23:002,40
02/11/2022 00:001,50
02/11/2022 01:001,15
02/11/2022 02:001,95
02/11/2022 03:001,50
02/11/2022 04:001,30
02/11/2022 05:000,85
02/11/2022 06:000,85
02/11/2022 07:000,40
02/11/2022 08:001,00
02/11/2022 09:003,50
02/11/2022 10:006,45
02/11/2022 11:0010,25
02/11/2022 12:0012,40
02/11/2022 13:0012,70
02/11/2022 14:0012,75
02/11/2022 15:0012,90
02/11/2022 16:0012,55
02/11/2022 17:0011,55
02/11/2022 18:009,35
02/11/2022 19:007,50
02/11/2022 20:006,35
02/11/2022 21:006,50
02/11/2022 22:006,80
02/11/2022 23:006,80
03/11/2022 00:008,40
03/11/2022 01:0010,55
03/11/2022 02:0010,35
03/11/2022 03:009,70
03/11/2022 04:009,85
03/11/2022 05:009,85
03/11/2022 06:009,90
03/11/2022 07:008,85
03/11/2022 08:008,10
03/11/2022 09:007,80
03/11/2022 10:007,90
03/11/2022 11:008,20
03/11/2022 12:009,05
03/11/2022 13:009,10
03/11/2022 14:0010,95
03/11/2022 15:0011,90
03/11/2022 16:0012,55
03/11/2022 17:0011,75
03/11/2022 18:008,20
03/11/2022 19:006,95
03/11/2022 20:006,10
03/11/2022 21:005,90
03/11/2022 22:005,75
03/11/2022 23:004,90
04/11/2022 00:003,65
04/11/2022 01:001,70
04/11/2022 02:00-0,05
04/11/2022 03:00-0,95
04/11/2022 04:00-1,40
04/11/2022 05:00-1,80
04/11/2022 06:00-2,05
04/11/2022 07:00-2,35
04/11/2022 08:00-2,05
04/11/2022 09:001,90
04/11/2022 10:005,40
04/11/2022 11:009,75
04/11/2022 12:0011,90
04/11/2022 13:0012,80
04/11/2022 14:0012,15
04/11/2022 15:0011,00
04/11/2022 16:0010,90
04/11/2022 17:0010,00
04/11/2022 18:006,90
04/11/2022 19:004,60
04/11/2022 20:002,80
04/11/2022 21:001,80
04/11/2022 22:001,30
04/11/2022 23:000,75
05/11/2022 00:000,10
05/11/2022 01:00-0,25
05/11/2022 02:00-0,25
05/11/2022 03:00-0,10
05/11/2022 04:00-1,10
05/11/2022 05:00-1,35
05/11/2022 06:00-1,30
05/11/2022 07:00-1,05
05/11/2022 08:00-1,35
05/11/2022 09:002,35
05/11/2022 10:006,00
05/11/2022 11:008,90
05/11/2022 12:0011,45
05/11/2022 13:0013,60
05/11/2022 14:0014,05
05/11/2022 15:0015,10
05/11/2022 16:0013,10
05/11/2022 17:0011,75
05/11/2022 18:008,50
05/11/2022 19:006,35
05/11/2022 20:004,45
05/11/2022 21:003,50
05/11/2022 22:002,70
05/11/2022 23:002,30
06/11/2022 00:001,80
06/11/2022 01:001,35
06/11/2022 02:000,55
06/11/2022 03:00-0,15
06/11/2022 04:00-0,30
06/11/2022 05:00-0,40
06/11/2022 06:00-0,60
06/11/2022 07:00-0,70
06/11/2022 08:000,00
06/11/2022 09:003,95
06/11/2022 10:007,35
06/11/2022 11:0010,35
06/11/2022 12:0011,50
06/11/2022 13:0013,45
06/11/2022 14:0013,60
06/11/2022 15:0013,80
06/11/2022 16:0013,75
06/11/2022 17:0012,85
06/11/2022 18:0010,95
06/11/2022 19:009,50
06/11/2022 20:007,25
06/11/2022 21:008,85
06/11/2022 22:007,85
06/11/2022 23:008,25
07/11/2022 00:007,70
07/11/2022 01:007,15
07/11/2022 02:006,10
07/11/2022 03:006,15
07/11/2022 04:005,70
07/11/2022 05:005,30
07/11/2022 06:005,45
07/11/2022 07:006,20
07/11/2022 08:006,70
07/11/2022 09:007,65
07/11/2022 10:007,95
07/11/2022 11:008,90
07/11/2022 12:009,90
07/11/2022 13:0010,80
07/11/2022 14:0011,45
07/11/2022 15:0010,80
07/11/2022 16:009,95
07/11/2022 17:009,60
07/11/2022 18:008,90
07/11/2022 19:008,80
07/11/2022 20:008,90
07/11/2022 21:009,00
07/11/2022 22:009,35
07/11/2022 23:009,70
08/11/2022 00:0010,10
08/11/2022 01:0010,35
08/11/2022 02:0010,60
08/11/2022 03:0010,65
08/11/2022 04:0011,00
08/11/2022 05:0011,05
08/11/2022 06:0011,00
08/11/2022 07:0011,10
08/11/2022 08:0011,05
08/11/2022 09:0011,40
08/11/2022 10:0011,60
08/11/2022 11:0011,80
08/11/2022 12:0012,20
08/11/2022 13:0012,30
08/11/2022 14:0011,30
08/11/2022 15:0011,50
08/11/2022 16:0011,55
08/11/2022 17:0011,15
08/11/2022 18:0010,45
08/11/2022 19:0010,10
08/11/2022 20:009,90
08/11/2022 21:009,95
08/11/2022 22:0010,90
08/11/2022 23:0010,35
09/11/2022 00:009,70
09/11/2022 01:009,40
09/11/2022 02:008,75
09/11/2022 03:008,40
09/11/2022 04:008,50
09/11/2022 05:008,30
09/11/2022 06:008,30
09/11/2022 07:008,45
09/11/2022 08:008,40
09/11/2022 09:008,75
09/11/2022 10:0011,05
09/11/2022 11:0012,25
09/11/2022 12:0013,15
09/11/2022 13:0013,55
09/11/2022 14:0012,30
09/11/2022 15:0013,50
09/11/2022 16:0012,95
09/11/2022 17:0011,30
09/11/2022 18:0010,00
09/11/2022 19:009,15
09/11/2022 20:006,90
09/11/2022 21:005,55
09/11/2022 22:004,70
09/11/2022 23:003,90
10/11/2022 00:003,55
10/11/2022 01:004,40
10/11/2022 02:003,20
10/11/2022 03:001,85
10/11/2022 04:001,45
10/11/2022 05:001,10
10/11/2022 06:000,70
10/11/2022 07:000,35
10/11/2022 08:000,45
10/11/2022 09:004,00
10/11/2022 10:008,60
10/11/2022 11:0012,30
10/11/2022 12:0014,00
10/11/2022 13:0014,10
10/11/2022 14:0014,10
10/11/2022 15:0014,10
10/11/2022 16:0011,95
10/11/2022 17:009,75
10/11/2022 18:007,55
10/11/2022 19:007,60
10/11/2022 20:007,50
10/11/2022 21:007,50
10/11/2022 22:007,20
10/11/2022 23:005,90
11/11/2022 00:004,05
11/11/2022 01:003,50
11/11/2022 02:002,85
11/11/2022 03:002,15
11/11/2022 04:001,75
11/11/2022 05:001,35
11/11/2022 06:001,25
11/11/2022 07:001,10
11/11/2022 08:001,45
11/11/2022 09:004,25
11/11/2022 10:008,40
11/11/2022 11:0012,00
11/11/2022 12:0012,85
11/11/2022 13:0013,45
11/11/2022 14:0013,95
11/11/2022 15:0014,80
11/11/2022 16:0014,55
11/11/2022 17:0013,30
11/11/2022 18:0011,00
11/11/2022 19:009,35
11/11/2022 20:008,45
11/11/2022 21:007,00
11/11/2022 22:005,60
11/11/2022 23:004,65
12/11/2022 00:004,10
12/11/2022 01:004,00
12/11/2022 02:003,45
12/11/2022 03:003,25
12/11/2022 04:003,40
12/11/2022 05:004,30
12/11/2022 06:004,65
12/11/2022 07:003,70
12/11/2022 08:003,60
12/11/2022 09:006,55
12/11/2022 10:0010,60
12/11/2022 11:0013,90
12/11/2022 12:0014,60
12/11/2022 13:0015,55
12/11/2022 14:0016,15
12/11/2022 15:0016,50
12/11/2022 16:0016,45
12/11/2022 17:0015,25
12/11/2022 18:0010,30
12/11/2022 19:008,45
12/11/2022 20:007,65
12/11/2022 21:009,65
12/11/2022 22:008,90
12/11/2022 23:007,10
13/11/2022 00:006,25
13/11/2022 01:006,75
13/11/2022 02:006,80
13/11/2022 03:005,40
13/11/2022 04:004,40
13/11/2022 05:003,30
13/11/2022 06:002,90
13/11/2022 07:002,25
13/11/2022 08:002,20
13/11/2022 09:006,40
13/11/2022 10:0011,60
13/11/2022 11:0012,65
13/11/2022 12:0013,35
13/11/2022 13:0014,55
13/11/2022 14:0014,95
13/11/2022 15:0015,20
13/11/2022 16:0014,40
13/11/2022 17:0012,85
13/11/2022 18:009,85
13/11/2022 19:007,80
13/11/2022 20:006,90
13/11/2022 21:005,70
13/11/2022 22:005,40
13/11/2022 23:007,90
14/11/2022 00:0010,30
14/11/2022 01:0010,00
14/11/2022 02:0010,10
14/11/2022 03:009,60
14/11/2022 04:009,60
14/11/2022 05:009,85
14/11/2022 06:0010,45
14/11/2022 07:0010,50
14/11/2022 08:0010,30
14/11/2022 09:0010,55
14/11/2022 10:0011,20
14/11/2022 11:0012,00
14/11/2022 12:0012,55
14/11/2022 13:0012,60
14/11/2022 14:0012,90
14/11/2022 15:0011,95
14/11/2022 16:0011,65
14/11/2022 17:0010,85
14/11/2022 18:009,85
14/11/2022 19:009,50
14/11/2022 20:008,90
14/11/2022 21:008,40
14/11/2022 22:008,45
14/11/2022 23:008,70
15/11/2022 00:008,75
15/11/2022 01:008,90
15/11/2022 02:009,05
15/11/2022 03:009,15
15/11/2022 04:008,85
15/11/2022 05:009,50
15/11/2022 06:009,55
15/11/2022 07:009,45
15/11/2022 08:009,20
15/11/2022 09:009,20
15/11/2022 10:009,50
15/11/2022 11:009,80
15/11/2022 12:0010,45
15/11/2022 13:0011,00
15/11/2022 14:0011,55
15/11/2022 15:0012,85
15/11/2022 16:0012,20
15/11/2022 17:0010,90
15/11/2022 18:009,95
15/11/2022 19:009,70
15/11/2022 20:008,90
15/11/2022 21:008,30
15/11/2022 22:008,25
15/11/2022 23:008,40
16/11/2022 00:008,10
16/11/2022 01:007,65
16/11/2022 02:007,40
16/11/2022 03:007,15
16/11/2022 04:007,40
16/11/2022 05:007,25
16/11/2022 06:007,65
16/11/2022 07:007,65
16/11/2022 08:007,55
16/11/2022 09:007,80
16/11/2022 10:007,95
16/11/2022 11:008,90
16/11/2022 12:008,75
16/11/2022 13:008,80
16/11/2022 14:009,70
16/11/2022 15:009,90
16/11/2022 16:0010,10
16/11/2022 17:0010,55
16/11/2022 18:0010,70
16/11/2022 19:0010,95
16/11/2022 20:0011,65
16/11/2022 21:0011,90
16/11/2022 22:0012,05
16/11/2022 23:0011,30
17/11/2022 00:0011,00
17/11/2022 01:0010,45
17/11/2022 02:0011,90
17/11/2022 03:0011,40
17/11/2022 04:0010,10
17/11/2022 05:009,60
17/11/2022 06:009,60
17/11/2022 07:009,80
17/11/2022 08:0010,10
17/11/2022 09:0010,75
17/11/2022 10:0011,75
17/11/2022 11:0013,45
17/11/2022 12:0013,25
17/11/2022 13:0013,25
17/11/2022 14:0013,30
17/11/2022 15:0013,35
17/11/2022 16:0012,20
17/11/2022 17:0011,10
17/11/2022 18:009,65
17/11/2022 19:007,05
17/11/2022 20:006,35
17/11/2022 21:005,15
17/11/2022 22:003,70
17/11/2022 23:002,85
18/11/2022 00:001,90
18/11/2022 01:001,65
18/11/2022 02:002,70
18/11/2022 03:003,50
18/11/2022 04:003,30
18/11/2022 05:003,45
18/11/2022 06:003,60
18/11/2022 07:004,00
18/11/2022 08:003,70
18/11/2022 09:005,30
18/11/2022 10:006,65
18/11/2022 11:008,25
18/11/2022 12:008,70
18/11/2022 13:009,40
18/11/2022 14:009,20
18/11/2022 15:009,65
18/11/2022 16:008,90
18/11/2022 17:007,10
18/11/2022 18:004,50
18/11/2022 19:003,05
18/11/2022 20:001,40
18/11/2022 21:000,80
18/11/2022 22:000,05
18/11/2022 23:000,20
19/11/2022 00:000,75
19/11/2022 01:001,00
19/11/2022 02:001,50
19/11/2022 03:001,20
19/11/2022 04:001,00
19/11/2022 05:001,35
19/11/2022 06:001,50
19/11/2022 07:001,45
19/11/2022 08:002,20
19/11/2022 09:003,60
19/11/2022 10:004,65
19/11/2022 11:005,50
19/11/2022 12:005,95
19/11/2022 13:005,65
19/11/2022 14:006,10
19/11/2022 15:006,55
19/11/2022 16:006,35
19/11/2022 17:005,55
19/11/2022 18:005,10
19/11/2022 19:004,45
19/11/2022 20:003,95
19/11/2022 21:003,55
19/11/2022 22:002,90
19/11/2022 23:002,75
20/11/2022 00:002,55
20/11/2022 01:002,90
20/11/2022 02:002,80
20/11/2022 03:002,70
20/11/2022 04:002,45
20/11/2022 05:001,60
20/11/2022 06:002,05
20/11/2022 07:002,30
20/11/2022 08:001,90
20/11/2022 09:001,50
20/11/2022 10:002,90
20/11/2022 11:004,80
20/11/2022 12:007,60
20/11/2022 13:009,60
20/11/2022 14:0010,00
20/11/2022 15:0010,60
20/11/2022 16:0010,50
20/11/2022 17:009,30
20/11/2022 18:007,30
20/11/2022 19:006,30
20/11/2022 20:006,10
20/11/2022 21:005,90
20/11/2022 22:006,20
20/11/2022 23:006,50
21/11/2022 00:006,50
21/11/2022 01:006,30
21/11/2022 02:006,50
21/11/2022 03:006,50
21/11/2022 04:007,20
21/11/2022 05:009,60
21/11/2022 06:0010,60
21/11/2022 07:0010,90
21/11/2022 08:0010,90
21/11/2022 09:0010,90
21/11/2022 10:0010,80
21/11/2022 11:0010,10
21/11/2022 12:0010,30
21/11/2022 13:007,85
21/11/2022 14:0010,90
21/11/2022 15:006,60
21/11/2022 16:006,20
21/11/2022 17:005,50
21/11/2022 18:003,20
21/11/2022 19:002,35
21/11/2022 20:002,80
21/11/2022 21:002,50
21/11/2022 22:001,90
21/11/2022 23:001,85
22/11/2022 00:001,80
22/11/2022 01:000,35
22/11/2022 02:000,80
22/11/2022 03:001,15
22/11/2022 04:001,00
22/11/2022 05:001,30
22/11/2022 06:001,40
22/11/2022 07:001,40
22/11/2022 08:001,80
22/11/2022 09:002,65
22/11/2022 10:003,20
22/11/2022 11:003,30
22/11/2022 12:003,65
22/11/2022 13:004,80
22/11/2022 14:005,85
22/11/2022 15:006,65
22/11/2022 16:006,90
22/11/2022 17:006,75
22/11/2022 18:006,95
22/11/2022 19:006,90
22/11/2022 20:006,90
22/11/2022 21:006,95
22/11/2022 22:007,10
22/11/2022 23:007,40
23/11/2022 00:008,10
23/11/2022 01:009,05
23/11/2022 02:0010,10
23/11/2022 03:0010,70
23/11/2022 04:0010,90
23/11/2022 05:0011,85
23/11/2022 06:0011,90
23/11/2022 07:0011,75
23/11/2022 08:0011,20
23/11/2022 09:0011,30
23/11/2022 10:0012,25
23/11/2022 11:0013,35
23/11/2022 12:0013,85
23/11/2022 13:0013,75
23/11/2022 14:0013,00
23/11/2022 15:0012,75
23/11/2022 16:0012,00
23/11/2022 17:0010,80
23/11/2022 18:009,50
23/11/2022 19:007,70
23/11/2022 20:004,95
23/11/2022 21:003,90
23/11/2022 22:002,50
23/11/2022 23:001,15
24/11/2022 00:000,50
24/11/2022 01:00-0,05
24/11/2022 02:000,50
24/11/2022 03:001,10
24/11/2022 04:003,50
24/11/2022 05:003,90
24/11/2022 06:004,90
24/11/2022 07:005,30
24/11/2022 08:004,70
24/11/2022 09:005,10
24/11/2022 10:005,80
24/11/2022 11:006,00
24/11/2022 12:006,00
24/11/2022 13:006,60
24/11/2022 14:007,20
24/11/2022 15:007,60
24/11/2022 16:007,80
24/11/2022 17:007,40
24/11/2022 18:006,75
24/11/2022 19:006,15
24/11/2022 20:006,10
24/11/2022 21:005,55
24/11/2022 22:005,55
24/11/2022 23:005,05
25/11/2022 00:003,50
25/11/2022 01:002,95
25/11/2022 02:003,80
25/11/2022 03:004,00
25/11/2022 04:004,10
25/11/2022 05:003,20
25/11/2022 06:001,85
25/11/2022 07:001,25
25/11/2022 08:001,20
25/11/2022 09:002,40
25/11/2022 10:003,65
25/11/2022 11:007,75
25/11/2022 12:009,30
25/11/2022 13:009,70
25/11/2022 14:0010,00
25/11/2022 15:009,55
25/11/2022 16:008,90
25/11/2022 17:007,10
25/11/2022 18:003,85
25/11/2022 19:002,05
25/11/2022 20:000,85
25/11/2022 21:000,20
25/11/2022 22:00-0,65
25/11/2022 23:00-0,45
26/11/2022 00:000,25
26/11/2022 01:00-0,05
26/11/2022 02:00-0,35
26/11/2022 03:00-0,60
26/11/2022 04:00-0,15
26/11/2022 05:000,30
26/11/2022 06:00-0,10
26/11/2022 07:00-0,20
26/11/2022 08:00-0,80
26/11/2022 09:001,20
26/11/2022 10:003,40
26/11/2022 11:005,95
26/11/2022 12:007,50
26/11/2022 13:008,35
26/11/2022 14:009,50
26/11/2022 15:009,35
26/11/2022 16:009,90
26/11/2022 17:008,05
26/11/2022 18:005,20
26/11/2022 19:004,00
26/11/2022 20:002,60
26/11/2022 21:001,65
26/11/2022 22:001,10
26/11/2022 23:000,70
27/11/2022 00:000,00
27/11/2022 01:00-0,35
27/11/2022 02:00-0,80
27/11/2022 03:00-1,25
27/11/2022 04:00-1,40
27/11/2022 05:00-1,65
27/11/2022 06:00-2,35
27/11/2022 07:00-2,50
27/11/2022 08:00-2,80
27/11/2022 09:00-1,30
27/11/2022 10:001,55
27/11/2022 11:006,10
27/11/2022 12:007,75
27/11/2022 13:008,10
27/11/2022 14:007,90
27/11/2022 15:007,80
27/11/2022 16:007,40
27/11/2022 17:006,70
27/11/2022 18:006,15
27/11/2022 19:006,00
27/11/2022 20:005,50
27/11/2022 21:005,10
27/11/2022 22:005,00
27/11/2022 23:004,65
28/11/2022 00:002,80
28/11/2022 01:002,60
28/11/2022 02:002,05
28/11/2022 03:000,65
28/11/2022 04:00-0,35
28/11/2022 05:00-1,15
28/11/2022 06:00-1,70
28/11/2022 07:00-1,90
28/11/2022 08:00-1,80
28/11/2022 09:00-1,80
28/11/2022 10:00-0,95
28/11/2022 11:001,40
28/11/2022 12:005,75
28/11/2022 13:007,85
28/11/2022 14:009,80
28/11/2022 15:0010,50
28/11/2022 16:009,30
28/11/2022 17:006,90
28/11/2022 18:004,65
28/11/2022 19:002,80
28/11/2022 20:001,30
28/11/2022 21:000,10
28/11/2022 22:00-0,50
28/11/2022 23:00-0,85
29/11/2022 00:00-1,40
29/11/2022 01:00-1,75
29/11/2022 02:00-1,45
29/11/2022 03:00-1,25
29/11/2022 04:00-1,15
29/11/2022 05:00-0,85
29/11/2022 06:00-0,50
29/11/2022 07:00-0,60
29/11/2022 08:00-1,30
29/11/2022 09:000,25
29/11/2022 10:003,20
29/11/2022 11:006,00
29/11/2022 12:007,50
29/11/2022 13:007,20
29/11/2022 14:007,45
29/11/2022 15:007,80
29/11/2022 16:006,45
29/11/2022 17:005,75
29/11/2022 18:005,20
29/11/2022 20:003,60
29/11/2022 22:003,40
29/11/2022 23:003,60
30/11/2022 00:003,40
30/11/2022 02:002,80
30/11/2022 03:002,95
30/11/2022 04:003,15
30/11/2022 05:003,40
30/11/2022 06:002,75
30/11/2022 07:002,00
30/11/2022 08:001,90
30/11/2022 10:004,50
30/11/2022 11:007,55
30/11/2022 12:008,70
30/11/2022 13:009,85
30/11/2022 14:009,90
30/11/2022 15:009,85
30/11/2022 16:0010,00
30/11/2022 17:006,50
30/11/2022 18:003,90
30/11/2022 20:000,30
30/11/2022 22:00-0,90
01/12/2022 00:00-1,80
01/12/2022 02:00-2,40
01/12/2022 03:00-1,15
01/12/2022 04:00-1,75
01/12/2022 05:00-3,45
01/12/2022 06:00-4,40
01/12/2022 07:00-4,75
01/12/2022 08:00-5,25
01/12/2022 09:00-5,10
01/12/2022 10:00-0,20
01/12/2022 11:003,55
01/12/2022 12:007,75
01/12/2022 13:007,75
01/12/2022 14:007,50
01/12/2022 15:007,10
01/12/2022 16:005,80
01/12/2022 17:004,25
01/12/2022 18:002,50
01/12/2022 19:00-0,40
01/12/2022 20:00-1,00
01/12/2022 21:00-2,10
01/12/2022 22:00-2,40
02/12/2022 00:00-3,30
02/12/2022 02:00-4,10
02/12/2022 03:00-5,00
02/12/2022 04:00-5,00
02/12/2022 05:00-5,75
02/12/2022 06:00-6,25
02/12/2022 07:00-6,30
02/12/2022 08:00-6,30
02/12/2022 10:00-1,50
02/12/2022 11:002,55
02/12/2022 12:004,65
02/12/2022 13:005,65
02/12/2022 14:006,10
02/12/2022 15:006,70
02/12/2022 16:006,70
02/12/2022 17:003,80
02/12/2022 18:00-0,20
02/12/2022 19:00-1,20
02/12/2022 20:00-2,10
02/12/2022 22:00-3,70
02/12/2022 23:00-3,85
03/12/2022 00:00-2,30
03/12/2022 01:00-2,10
03/12/2022 02:00-3,70
03/12/2022 03:00-4,45
03/12/2022 04:00-4,70
03/12/2022 05:00-5,10
03/12/2022 06:00-5,00
03/12/2022 07:00-4,10
03/12/2022 08:00-3,40
03/12/2022 09:00-2,10
03/12/2022 10:00-0,40
03/12/2022 11:003,10
03/12/2022 12:002,85
03/12/2022 13:004,40
03/12/2022 14:004,10
03/12/2022 15:004,25
03/12/2022 16:003,45
03/12/2022 17:002,00
03/12/2022 18:000,45
03/12/2022 19:00-0,25
03/12/2022 20:00-1,30
03/12/2022 21:00-1,90
03/12/2022 22:00-1,40
03/12/2022 23:00-0,90
04/12/2022 00:00-0,70
04/12/2022 02:00-1,40
04/12/2022 03:00-1,25
04/12/2022 04:00-1,30
04/12/2022 05:00-1,50
04/12/2022 06:00-2,05
04/12/2022 07:00-2,70
04/12/2022 08:00-3,30
04/12/2022 09:00-3,40
04/12/2022 10:00-3,30
04/12/2022 11:00-2,40
04/12/2022 12:000,80
04/12/2022 13:003,15
04/12/2022 14:004,10
04/12/2022 15:004,55
04/12/2022 16:004,40
04/12/2022 17:003,30
04/12/2022 18:001,90
04/12/2022 19:002,30
04/12/2022 20:001,90
04/12/2022 21:001,50
04/12/2022 22:002,00
04/12/2022 23:002,55
05/12/2022 00:002,30
05/12/2022 02:002,70
05/12/2022 03:002,30
05/12/2022 04:002,00
05/12/2022 05:001,25
05/12/2022 06:000,40
05/12/2022 07:000,15
05/12/2022 08:00-0,40
05/12/2022 09:000,20
05/12/2022 10:002,30
05/12/2022 11:004,55
05/12/2022 12:005,75
05/12/2022 13:007,00
05/12/2022 14:007,10
05/12/2022 15:007,20
05/12/2022 16:007,30
05/12/2022 17:007,00
05/12/2022 18:006,40
05/12/2022 19:005,60
05/12/2022 20:005,50
05/12/2022 21:005,30
05/12/2022 22:005,30
05/12/2022 23:005,30
06/12/2022 00:005,40
06/12/2022 01:005,50
06/12/2022 02:005,65
06/12/2022 03:005,40
06/12/2022 04:004,65
06/12/2022 05:004,05
06/12/2022 06:004,20
06/12/2022 07:003,50
06/12/2022 08:003,15
06/12/2022 09:002,80
06/12/2022 10:004,90
06/12/2022 11:008,60
06/12/2022 12:0011,40
06/12/2022 13:0011,80
06/12/2022 14:0011,90
06/12/2022 15:0011,40
06/12/2022 16:0010,25
06/12/2022 17:009,25
06/12/2022 18:008,35
06/12/2022 19:007,80
06/12/2022 20:007,35
06/12/2022 21:006,85
06/12/2022 22:006,40
06/12/2022 23:006,20
07/12/2022 00:006,10
07/12/2022 01:005,25
07/12/2022 02:005,20
07/12/2022 03:004,95
07/12/2022 04:004,70
07/12/2022 05:004,55
07/12/2022 06:004,40
07/12/2022 07:004,05
07/12/2022 08:004,50
07/12/2022 09:003,75
07/12/2022 10:007,50
07/12/2022 11:008,85
07/12/2022 12:0010,45
07/12/2022 13:0010,65
07/12/2022 14:0011,25
07/12/2022 15:0010,30
07/12/2022 16:0010,10
07/12/2022 17:009,20
07/12/2022 18:007,90
07/12/2022 19:007,10
07/12/2022 20:006,40
07/12/2022 21:006,10
07/12/2022 22:005,65
07/12/2022 23:005,20
08/12/2022 00:004,45
08/12/2022 01:004,40
08/12/2022 02:004,10
08/12/2022 03:003,95
08/12/2022 04:004,00
08/12/2022 05:003,95
08/12/2022 06:004,10
08/12/2022 07:004,40
08/12/2022 08:004,50
08/12/2022 09:004,70
08/12/2022 10:005,15
08/12/2022 11:005,55
08/12/2022 12:006,15
08/12/2022 13:006,95
08/12/2022 14:007,00
08/12/2022 15:007,20
08/12/2022 16:007,20
08/12/2022 17:007,10
08/12/2022 18:006,90
08/12/2022 19:006,90
08/12/2022 20:006,85
08/12/2022 21:006,80
08/12/2022 22:006,10
08/12/2022 23:005,80
09/12/2022 00:006,10
09/12/2022 01:006,15
09/12/2022 02:006,10
09/12/2022 03:006,10
09/12/2022 04:006,10
09/12/2022 05:005,80
09/12/2022 06:005,75
09/12/2022 07:003,85
09/12/2022 08:002,70
09/12/2022 09:002,40
09/12/2022 10:003,60
09/12/2022 11:005,10
09/12/2022 12:005,90
09/12/2022 13:006,75
09/12/2022 14:007,85
09/12/2022 15:007,80
09/12/2022 16:007,20
09/12/2022 17:006,80
09/12/2022 18:006,20
09/12/2022 19:006,00
09/12/2022 20:005,80
09/12/2022 21:005,30
09/12/2022 22:005,05
09/12/2022 23:003,95
10/12/2022 00:003,80
10/12/2022 01:003,50
10/12/2022 02:003,00
10/12/2022 03:001,35
10/12/2022 04:000,45
10/12/2022 05:00-0,70
10/12/2022 06:00-1,15
10/12/2022 07:00-0,50
10/12/2022 08:00-0,25
10/12/2022 09:000,40
10/12/2022 10:001,55
10/12/2022 11:002,70
10/12/2022 12:003,50
10/12/2022 13:003,80
10/12/2022 14:004,25
10/12/2022 15:005,10
10/12/2022 16:004,15
10/12/2022 17:003,60
10/12/2022 18:002,90
10/12/2022 19:002,80
10/12/2022 20:002,30
10/12/2022 21:002,55
10/12/2022 22:003,00
10/12/2022 23:003,30
11/12/2022 00:003,35
11/12/2022 01:003,20
11/12/2022 02:003,10
11/12/2022 03:002,80
11/12/2022 04:003,05
11/12/2022 05:003,35
11/12/2022 06:003,40
11/12/2022 07:003,40
11/12/2022 08:003,40
11/12/2022 09:003,30
11/12/2022 10:003,60
11/12/2022 11:004,15
11/12/2022 12:004,05
11/12/2022 13:004,20
11/12/2022 14:004,80
11/12/2022 15:004,90
11/12/2022 16:005,10
11/12/2022 17:004,65
11/12/2022 18:004,00
11/12/2022 19:003,90
11/12/2022 20:003,60
11/12/2022 21:003,40
11/12/2022 22:003,45
11/12/2022 23:003,40
12/12/2022 00:003,70
12/12/2022 01:004,15
12/12/2022 02:004,45
12/12/2022 03:004,50
12/12/2022 04:004,65
12/12/2022 05:004,60
12/12/2022 06:004,70
12/12/2022 07:004,60
12/12/2022 08:004,50
12/12/2022 09:004,40
12/12/2022 10:004,50
12/12/2022 11:004,70
12/12/2022 12:005,00
12/12/2022 13:007,00
12/12/2022 14:0010,15
12/12/2022 15:0010,70
12/12/2022 16:0010,45
12/12/2022 17:0010,60
12/12/2022 18:0011,05
12/12/2022 19:0011,45
12/12/2022 20:0010,85
12/12/2022 21:0010,30
12/12/2022 22:0010,10
12/12/2022 23:0010,10
13/12/2022 00:0010,20
13/12/2022 01:0010,20
13/12/2022 02:0010,10
13/12/2022 03:009,95
13/12/2022 04:0010,00
13/12/2022 05:009,95
13/12/2022 06:0010,05
13/12/2022 07:009,90
13/12/2022 08:009,35
13/12/2022 09:009,80
13/12/2022 10:0010,10
13/12/2022 11:0010,60
13/12/2022 12:0011,10
13/12/2022 13:0011,70
13/12/2022 14:0011,70
13/12/2022 15:0011,45
13/12/2022 16:0011,45
13/12/2022 17:0010,95
13/12/2022 18:0010,40
13/12/2022 19:0010,00
13/12/2022 20:0010,10
13/12/2022 21:009,45
13/12/2022 22:009,20
13/12/2022 23:009,10
14/12/2022 00:009,20
14/12/2022 01:009,45
14/12/2022 02:009,45
14/12/2022 03:009,10
14/12/2022 04:008,80
14/12/2022 05:008,35
14/12/2022 06:007,95
14/12/2022 07:007,40
14/12/2022 08:007,40
14/12/2022 09:007,60
14/12/2022 10:007,75
14/12/2022 11:008,85
14/12/2022 12:009,60
14/12/2022 13:0011,10
14/12/2022 14:0011,30
14/12/2022 15:0010,95
14/12/2022 16:0010,00
14/12/2022 17:008,45
14/12/2022 18:008,00
14/12/2022 19:007,80
14/12/2022 20:007,70
14/12/2022 21:007,95
14/12/2022 22:007,50
14/12/2022 23:007,40
15/12/2022 00:007,70
15/12/2022 01:007,65
15/12/2022 02:007,35
15/12/2022 03:007,20
15/12/2022 04:007,10
15/12/2022 05:006,75
15/12/2022 06:006,50
15/12/2022 07:006,70
15/12/2022 08:006,55
15/12/2022 09:006,60
15/12/2022 10:006,70
15/12/2022 11:007,10
15/12/2022 12:007,85
15/12/2022 13:008,60
15/12/2022 14:008,80
15/12/2022 15:008,50
15/12/2022 16:008,15
15/12/2022 17:007,15
15/12/2022 18:005,50
15/12/2022 19:004,50
15/12/2022 20:004,20
15/12/2022 21:004,20
15/12/2022 22:002,85
15/12/2022 23:002,00
16/12/2022 00:001,70
16/12/2022 01:002,20
16/12/2022 02:002,55
16/12/2022 03:002,80
16/12/2022 04:003,00
16/12/2022 05:003,15
16/12/2022 06:003,05
16/12/2022 07:003,10
16/12/2022 08:003,40
16/12/2022 09:003,75
16/12/2022 10:004,20
16/12/2022 11:006,60
16/12/2022 12:006,85
16/12/2022 13:008,30
16/12/2022 14:008,00
16/12/2022 15:007,30
16/12/2022 16:006,90
16/12/2022 17:005,05
16/12/2022 18:004,10
16/12/2022 19:002,05
16/12/2022 20:001,65
16/12/2022 21:002,35
16/12/2022 22:002,65
16/12/2022 23:002,90
17/12/2022 00:003,05
17/12/2022 01:003,20
17/12/2022 02:001,80
17/12/2022 03:001,00
17/12/2022 04:000,30
17/12/2022 05:00-0,70
17/12/2022 06:00-1,10
17/12/2022 07:00-1,70
17/12/2022 08:00-1,50
17/12/2022 09:00-0,90
17/12/2022 10:001,70
17/12/2022 11:005,60
17/12/2022 12:007,65
17/12/2022 13:009,30
17/12/2022 14:009,90
17/12/2022 15:009,95
17/12/2022 16:007,90
17/12/2022 17:007,40
17/12/2022 18:006,15
17/12/2022 19:005,90
17/12/2022 20:005,00
17/12/2022 21:003,80
17/12/2022 22:003,40
17/12/2022 23:004,80
18/12/2022 00:003,85
18/12/2022 01:002,15
18/12/2022 02:005,35
18/12/2022 03:006,60
18/12/2022 04:006,25
18/12/2022 05:005,80
18/12/2022 06:005,90
18/12/2022 07:006,30
18/12/2022 08:006,25
18/12/2022 09:006,55
18/12/2022 10:006,75
18/12/2022 11:007,25
18/12/2022 12:007,30
18/12/2022 13:006,90
18/12/2022 14:006,90
18/12/2022 15:006,90
18/12/2022 16:006,85
18/12/2022 17:007,15
18/12/2022 18:007,20
18/12/2022 19:007,15
18/12/2022 20:007,30
18/12/2022 21:006,75
18/12/2022 22:006,65
18/12/2022 23:006,50
19/12/2022 00:005,25
19/12/2022 01:006,35
19/12/2022 02:003,80
19/12/2022 03:002,65
19/12/2022 04:002,80
19/12/2022 05:004,55
19/12/2022 06:004,00
19/12/2022 07:004,45
19/12/2022 08:004,80
19/12/2022 09:005,00
19/12/2022 10:005,10
19/12/2022 11:004,95
19/12/2022 12:004,60
19/12/2022 13:005,15
19/12/2022 14:005,70
19/12/2022 15:007,05
19/12/2022 16:008,60
19/12/2022 17:008,25
19/12/2022 18:008,00
19/12/2022 19:008,85
19/12/2022 20:008,90
19/12/2022 21:008,60
19/12/2022 22:008,35
19/12/2022 23:008,20
20/12/2022 00:007,15
20/12/2022 01:007,20
20/12/2022 02:007,70
20/12/2022 03:007,55
20/12/2022 04:007,30
20/12/2022 05:007,10
20/12/2022 06:007,35
20/12/2022 07:007,30
20/12/2022 08:007,60
20/12/2022 09:008,35
20/12/2022 10:008,70
20/12/2022 11:008,50
20/12/2022 12:009,05
20/12/2022 13:009,45
20/12/2022 14:009,70
20/12/2022 15:009,55
20/12/2022 16:008,15
20/12/2022 17:007,40
20/12/2022 18:007,20
20/12/2022 19:007,70
20/12/2022 20:007,65
20/12/2022 21:006,80
20/12/2022 22:006,30
20/12/2022 23:005,85
21/12/2022 00:007,75
21/12/2022 01:007,30
21/12/2022 02:007,00
21/12/2022 03:007,20
21/12/2022 04:007,10
21/12/2022 05:007,10
21/12/2022 06:007,35
21/12/2022 07:007,80
21/12/2022 08:008,00
21/12/2022 09:008,30
21/12/2022 10:008,70
21/12/2022 11:009,40
21/12/2022 12:009,35
21/12/2022 13:008,95
21/12/2022 14:008,75
21/12/2022 15:008,90
21/12/2022 16:008,90
21/12/2022 17:008,90
21/12/2022 18:008,90
21/12/2022 19:009,70
21/12/2022 20:009,90
21/12/2022 21:0010,00
21/12/2022 22:0010,10
21/12/2022 23:009,55
22/12/2022 00:009,70
22/12/2022 01:009,40
22/12/2022 02:009,40
22/12/2022 03:009,40
22/12/2022 04:009,40
22/12/2022 05:009,35
22/12/2022 06:009,30
22/12/2022 07:009,30
22/12/2022 08:009,10
22/12/2022 09:008,85
22/12/2022 10:009,10
22/12/2022 11:009,60
22/12/2022 12:0011,00
22/12/2022 13:0011,05
22/12/2022 14:0011,85
22/12/2022 15:0012,65
22/12/2022 16:0012,10
22/12/2022 17:0012,00
22/12/2022 18:0011,85
22/12/2022 19:0012,20
22/12/2022 20:0012,05
22/12/2022 21:0011,80
22/12/2022 22:0011,40
22/12/2022 23:0011,20
23/12/2022 00:0011,00
23/12/2022 01:0010,75
23/12/2022 02:0010,35
23/12/2022 03:0010,40
23/12/2022 04:0010,45
23/12/2022 05:0010,30
23/12/2022 06:0010,10
23/12/2022 07:009,85
23/12/2022 08:009,50
23/12/2022 09:009,45
23/12/2022 10:009,30
23/12/2022 11:009,30
23/12/2022 12:009,20
23/12/2022 13:009,70
23/12/2022 14:0010,30
23/12/2022 15:0010,30
23/12/2022 16:0010,30
23/12/2022 17:0010,30
23/12/2022 18:0010,30
23/12/2022 19:0010,05
23/12/2022 20:0010,00
23/12/2022 21:009,85
23/12/2022 22:009,50
23/12/2022 23:009,20
24/12/2022 00:008,90
24/12/2022 01:008,70
24/12/2022 02:008,30
24/12/2022 03:008,40
24/12/2022 04:008,50
24/12/2022 05:008,20
24/12/2022 06:007,80
24/12/2022 07:007,90
24/12/2022 08:007,90
24/12/2022 09:007,80
24/12/2022 10:008,45
24/12/2022 11:008,80
24/12/2022 12:009,30
24/12/2022 13:009,30
24/12/2022 14:009,50
24/12/2022 15:009,50
24/12/2022 16:009,30
24/12/2022 17:009,05
24/12/2022 18:008,75
24/12/2022 19:008,80
24/12/2022 20:008,90
24/12/2022 21:008,80
24/12/2022 22:008,90
24/12/2022 23:008,80
25/12/2022 00:008,40
25/12/2022 01:007,80
25/12/2022 02:007,70
25/12/2022 03:008,25
25/12/2022 04:007,80
25/12/2022 05:008,40
25/12/2022 06:008,40
25/12/2022 07:007,80
25/12/2022 08:007,15
25/12/2022 09:006,80
25/12/2022 10:007,15
25/12/2022 11:007,20
25/12/2022 12:007,45
25/12/2022 13:008,15
25/12/2022 14:008,40
25/12/2022 15:008,50
25/12/2022 16:008,60
25/12/2022 17:008,70
25/12/2022 18:008,40
25/12/2022 19:008,20
25/12/2022 20:008,00
25/12/2022 21:007,90
25/12/2022 22:007,90
25/12/2022 23:007,90
26/12/2022 00:007,70
26/12/2022 01:007,65
26/12/2022 02:007,50
26/12/2022 03:007,40
26/12/2022 04:007,25
26/12/2022 05:007,35
26/12/2022 06:007,20
26/12/2022 07:007,30
26/12/2022 08:007,60
26/12/2022 09:007,55
26/12/2022 10:008,95
26/12/2022 11:009,25
26/12/2022 12:0010,45
26/12/2022 13:0011,90
26/12/2022 14:0010,75
26/12/2022 15:0010,35
26/12/2022 16:0010,20
26/12/2022 17:008,90
26/12/2022 18:008,85
26/12/2022 19:008,80
26/12/2022 20:008,40
26/12/2022 21:008,30
26/12/2022 22:007,85
26/12/2022 23:007,80
27/12/2022 00:008,00
27/12/2022 01:008,90
27/12/2022 02:008,30
27/12/2022 03:008,00
27/12/2022 04:008,15
27/12/2022 05:007,25
27/12/2022 06:007,95
27/12/2022 07:007,90
27/12/2022 08:007,85
27/12/2022 09:008,35
27/12/2022 10:008,50
27/12/2022 11:009,10
27/12/2022 12:009,45
27/12/2022 13:0010,35
27/12/2022 14:0010,40
27/12/2022 15:0010,60
27/12/2022 16:0010,35
27/12/2022 17:009,90
27/12/2022 18:009,40
27/12/2022 19:009,20
27/12/2022 20:008,65
27/12/2022 21:008,20
27/12/2022 22:007,90
27/12/2022 23:007,80
28/12/2022 00:008,00
28/12/2022 01:007,40
28/12/2022 02:006,85
28/12/2022 03:006,40
28/12/2022 04:006,60
28/12/2022 05:006,30
28/12/2022 06:006,30
28/12/2022 07:006,10
28/12/2022 08:006,00
28/12/2022 09:006,05
28/12/2022 10:006,40
28/12/2022 11:007,85
28/12/2022 12:007,00
28/12/2022 13:006,60
28/12/2022 14:007,40
28/12/2022 15:007,85
28/12/2022 16:008,00
28/12/2022 17:007,90
28/12/2022 18:007,90
28/12/2022 19:007,70
28/12/2022 20:008,30
28/12/2022 21:008,10
28/12/2022 22:008,30
28/12/2022 23:007,65
29/12/2022 00:006,90
29/12/2022 01:006,90
29/12/2022 02:006,80
29/12/2022 03:006,85
29/12/2022 04:007,10
29/12/2022 05:006,90
29/12/2022 06:007,25
29/12/2022 07:007,40
29/12/2022 08:007,60
29/12/2022 09:007,95
29/12/2022 10:008,50
29/12/2022 11:008,80
29/12/2022 12:008,80
29/12/2022 13:008,60
29/12/2022 14:008,40
29/12/2022 15:008,05
29/12/2022 16:008,20
29/12/2022 17:008,20
29/12/2022 18:007,90
29/12/2022 19:007,60
29/12/2022 20:006,90
29/12/2022 21:007,20
29/12/2022 22:007,40
29/12/2022 23:007,40
30/12/2022 00:007,60
30/12/2022 01:007,60
30/12/2022 02:007,90
30/12/2022 03:009,45
30/12/2022 04:009,50
30/12/2022 05:009,55
30/12/2022 06:009,50
30/12/2022 07:009,80
30/12/2022 08:0010,00
30/12/2022 09:009,95
30/12/2022 10:0010,40
30/12/2022 11:0010,55
30/12/2022 12:0010,60
30/12/2022 13:0010,60
30/12/2022 14:0010,60
30/12/2022 15:0010,60
30/12/2022 16:009,90
30/12/2022 17:0010,00
30/12/2022 18:0010,30
30/12/2022 19:0010,35
30/12/2022 20:0010,40
30/12/2022 21:009,90
30/12/2022 22:009,50
30/12/2022 23:009,30
31/12/2022 00:009,10
31/12/2022 01:008,90
31/12/2022 02:008,80
31/12/2022 03:008,30
31/12/2022 04:007,95
31/12/2022 05:007,75
31/12/2022 06:007,75
31/12/2022 07:007,35
31/12/2022 08:007,10
31/12/2022 09:006,80
31/12/2022 10:007,60
31/12/2022 11:009,10
31/12/2022 12:0010,00
31/12/2022 13:0010,50
31/12/2022 14:0010,35
31/12/2022 15:0010,30
31/12/2022 16:0010,30
31/12/2022 17:0010,10
31/12/2022 18:009,50
31/12/2022 19:009,95
31/12/2022 20:009,30
31/12/2022 21:008,70
31/12/2022 22:007,70
31/12/2022 23:007,85
01/01/2023 00:007,40
01/01/2023 01:007,40
01/01/2023 02:007,40
01/01/2023 03:007,65
01/01/2023 04:007,70
01/01/2023 05:007,65
01/01/2023 06:008,00
01/01/2023 07:009,00
01/01/2023 08:009,00
01/01/2023 09:0010,00
01/01/2023 10:0010,10
01/01/2023 11:0010,00
01/01/2023 12:0010,30
01/01/2023 13:0010,35
01/01/2023 14:0010,15
01/01/2023 15:0011,00
01/01/2023 16:0011,30
01/01/2023 17:0011,00
01/01/2023 18:009,30
01/01/2023 19:008,35
01/01/2023 20:007,90
01/01/2023 21:007,70
01/01/2023 22:007,75
01/01/2023 23:007,70
02/01/2023 00:007,90
02/01/2023 01:007,90
02/01/2023 02:007,80
02/01/2023 03:007,00
02/01/2023 04:005,95
02/01/2023 05:004,30
02/01/2023 06:002,90
02/01/2023 07:001,95
02/01/2023 08:002,50
02/01/2023 09:003,00
02/01/2023 10:003,40
02/01/2023 11:004,45
02/01/2023 12:005,40
02/01/2023 13:006,80
02/01/2023 14:007,05
02/01/2023 15:007,25
02/01/2023 16:007,60
02/01/2023 17:006,10
02/01/2023 18:004,20
02/01/2023 19:003,35
02/01/2023 20:002,80
02/01/2023 21:001,75
02/01/2023 22:000,70
02/01/2023 23:00-0,20
03/01/2023 00:00-1,10
03/01/2023 01:00-0,85
03/01/2023 02:000,10
03/01/2023 03:000,95
03/01/2023 04:000,55
03/01/2023 05:000,40
03/01/2023 06:00-0,15
03/01/2023 07:00-1,10
03/01/2023 08:00-1,50
03/01/2023 09:00-1,80
03/01/2023 10:001,10
03/01/2023 11:003,90
03/01/2023 12:005,65
03/01/2023 13:007,45
03/01/2023 14:008,40
03/01/2023 15:008,00
03/01/2023 16:007,20
03/01/2023 17:004,25
03/01/2023 18:002,50
03/01/2023 20:001,90
03/01/2023 22:001,40
04/01/2023 00:00-0,20
04/01/2023 02:00-1,50
04/01/2023 03:00-2,30
04/01/2023 04:00-2,30
04/01/2023 05:00-2,50
04/01/2023 06:00-2,60
04/01/2023 07:00-2,95
04/01/2023 08:00-2,80
04/01/2023 09:00-2,65
04/01/2023 10:000,60
04/01/2023 11:003,35
04/01/2023 12:007,25
04/01/2023 13:009,45
04/01/2023 14:0010,15
04/01/2023 15:0010,35
04/01/2023 16:0010,20
04/01/2023 17:008,05
04/01/2023 18:003,45
04/01/2023 19:001,95
04/01/2023 20:000,95
04/01/2023 21:000,00
04/01/2023 22:00-0,45
04/01/2023 23:00-0,80
05/01/2023 00:00-1,05
05/01/2023 01:00-1,40
05/01/2023 02:00-1,40
05/01/2023 03:00-1,65
05/01/2023 04:00-1,00
05/01/2023 05:00-1,35
05/01/2023 06:00-1,30
05/01/2023 07:00-1,90
05/01/2023 08:00-2,40
05/01/2023 09:00-1,35
05/01/2023 10:001,50
05/01/2023 11:004,35
05/01/2023 12:008,30
05/01/2023 13:0010,20
05/01/2023 14:0010,80
05/01/2023 15:0011,20
05/01/2023 16:009,40
05/01/2023 17:006,20
05/01/2023 18:003,20
05/01/2023 19:003,00
05/01/2023 20:002,50
05/01/2023 21:001,50
05/01/2023 22:000,05
05/01/2023 23:00-0,40
06/01/2023 00:00-0,80
06/01/2023 01:00-1,55
06/01/2023 02:00-2,10
06/01/2023 03:00-2,40
06/01/2023 04:00-3,00
06/01/2023 05:00-3,20
06/01/2023 06:00-3,95
06/01/2023 07:00-4,20
06/01/2023 08:00-4,40
06/01/2023 09:00-4,45
06/01/2023 10:00-2,20
06/01/2023 11:001,00
06/01/2023 12:002,65
06/01/2023 13:002,60
06/01/2023 14:003,60
06/01/2023 15:004,45
06/01/2023 16:003,35
06/01/2023 17:002,40
06/01/2023 18:001,45
06/01/2023 19:000,85
06/01/2023 20:000,30
06/01/2023 21:00-0,70
06/01/2023 22:00-0,90
06/01/2023 23:00-0,60
07/01/2023 00:000,50
07/01/2023 01:002,20
07/01/2023 02:002,40
07/01/2023 03:001,80
07/01/2023 04:001,40
07/01/2023 05:001,50
07/01/2023 06:001,70
07/01/2023 07:002,00
07/01/2023 08:001,90
07/01/2023 10:002,50
07/01/2023 11:003,00
07/01/2023 12:003,65
07/01/2023 13:004,50
07/01/2023 14:006,60
07/01/2023 15:007,30
07/01/2023 16:007,70
07/01/2023 17:007,80
07/01/2023 18:007,70
07/01/2023 20:007,40
07/01/2023 22:006,50
07/01/2023 23:006,30
08/01/2023 00:006,10
08/01/2023 02:005,30
08/01/2023 03:005,25
08/01/2023 04:005,60
08/01/2023 05:005,60
08/01/2023 06:005,55
08/01/2023 07:005,80
08/01/2023 08:005,80
08/01/2023 09:005,75
08/01/2023 10:005,50
08/01/2023 11:005,90
08/01/2023 12:007,00
08/01/2023 13:008,65
08/01/2023 14:0010,10
08/01/2023 15:009,80
08/01/2023 16:009,60
08/01/2023 17:009,70
08/01/2023 18:009,30
08/01/2023 19:008,25
08/01/2023 20:007,60
08/01/2023 22:006,60
09/01/2023 00:003,70
09/01/2023 02:002,10
09/01/2023 03:001,40
09/01/2023 04:001,10
09/01/2023 05:000,30
09/01/2023 06:00-0,65
09/01/2023 07:00-1,20
09/01/2023 08:00-1,20
09/01/2023 10:000,10
09/01/2023 11:005,00
09/01/2023 12:007,70
09/01/2023 13:009,00
09/01/2023 14:009,60
09/01/2023 15:009,00
09/01/2023 16:008,40
09/01/2023 17:006,75
09/01/2023 18:005,30
09/01/2023 20:000,80
09/01/2023 22:00-1,20
10/01/2023 00:00-1,30
10/01/2023 02:00-2,00
10/01/2023 03:00-2,40
10/01/2023 04:00-2,40
10/01/2023 05:00-2,80
10/01/2023 06:00-3,00
10/01/2023 07:00-3,10
10/01/2023 08:00-3,40
10/01/2023 10:00-0,70
10/01/2023 11:004,00
10/01/2023 12:004,90
10/01/2023 13:006,80
10/01/2023 14:006,35
10/01/2023 15:004,80
10/01/2023 16:005,50
10/01/2023 17:005,20
10/01/2023 18:004,70
10/01/2023 20:006,30
10/01/2023 21:006,70
10/01/2023 22:006,60
11/01/2023 00:007,10
11/01/2023 02:006,80
11/01/2023 03:006,90
11/01/2023 04:006,60
11/01/2023 05:006,35
11/01/2023 06:006,10
11/01/2023 07:005,75
11/01/2023 08:005,60
11/01/2023 10:005,30
11/01/2023 11:005,70
11/01/2023 12:008,85
11/01/2023 13:0010,25
11/01/2023 14:0010,00
11/01/2023 15:009,25
11/01/2023 16:008,20
11/01/2023 17:007,40
11/01/2023 18:005,20
11/01/2023 19:002,95
11/01/2023 20:001,50
11/01/2023 21:002,10
11/01/2023 22:002,50
11/01/2023 23:002,85
12/01/2023 00:001,80
12/01/2023 02:000,10
12/01/2023 03:00-0,30
12/01/2023 04:00-0,55
12/01/2023 05:00-1,40
12/01/2023 06:00-1,80
12/01/2023 07:00-2,30
12/01/2023 08:00-2,50
12/01/2023 09:00-2,80
12/01/2023 10:000,20
12/01/2023 11:004,95
12/01/2023 12:007,95
12/01/2023 13:008,80
12/01/2023 14:008,20
12/01/2023 15:007,90
12/01/2023 16:007,50
12/01/2023 17:006,15
12/01/2023 18:004,80
12/01/2023 19:003,80
12/01/2023 20:001,25
12/01/2023 21:00-0,25
12/01/2023 22:00-0,30
12/01/2023 23:00-0,20
13/01/2023 00:00-0,10
13/01/2023 02:000,90
13/01/2023 03:001,20
13/01/2023 04:001,00
13/01/2023 05:000,75
13/01/2023 06:001,25
13/01/2023 07:000,80
13/01/2023 08:000,90
13/01/2023 09:000,75
13/01/2023 10:000,70
13/01/2023 11:001,30
13/01/2023 12:001,75
13/01/2023 13:002,60
13/01/2023 14:003,45
13/01/2023 15:004,20
13/01/2023 16:004,70
13/01/2023 17:004,55
13/01/2023 18:004,50
13/01/2023 19:004,40
13/01/2023 20:004,15
13/01/2023 21:004,00
13/01/2023 22:003,50
13/01/2023 23:003,25
14/01/2023 00:003,35
14/01/2023 01:003,50
14/01/2023 02:004,40
14/01/2023 03:005,15
14/01/2023 04:005,15
14/01/2023 05:005,65
14/01/2023 06:005,90
14/01/2023 07:005,45
14/01/2023 08:005,30
14/01/2023 09:005,20
14/01/2023 10:005,90
14/01/2023 11:006,15
14/01/2023 12:006,00
14/01/2023 13:006,20
14/01/2023 14:007,10
14/01/2023 15:006,70
14/01/2023 16:006,90
14/01/2023 17:006,95
14/01/2023 18:006,90
14/01/2023 19:007,20
14/01/2023 20:006,80
14/01/2023 21:006,70
14/01/2023 22:006,80
14/01/2023 23:006,80
15/01/2023 00:006,70
15/01/2023 01:006,50
15/01/2023 02:006,50
15/01/2023 03:006,05
15/01/2023 04:005,80
15/01/2023 05:005,40
15/01/2023 06:003,40
15/01/2023 07:003,00
15/01/2023 08:002,45
15/01/2023 09:001,75
15/01/2023 10:003,65
15/01/2023 11:005,05
15/01/2023 12:005,90
15/01/2023 13:004,90
15/01/2023 14:006,65
15/01/2023 15:007,30
15/01/2023 16:006,40
15/01/2023 17:004,60
15/01/2023 18:001,55
15/01/2023 19:002,95
15/01/2023 20:002,20
15/01/2023 21:002,10
15/01/2023 22:002,00
15/01/2023 23:001,20
16/01/2023 00:000,25
16/01/2023 01:000,75
16/01/2023 02:000,85
16/01/2023 03:001,05
16/01/2023 04:001,40
16/01/2023 05:001,60
16/01/2023 06:002,10
16/01/2023 07:001,35
16/01/2023 08:001,35
16/01/2023 09:001,80
16/01/2023 10:002,90
16/01/2023 11:003,65
16/01/2023 12:004,00
16/01/2023 13:004,70
16/01/2023 14:005,70
16/01/2023 15:005,80
16/01/2023 16:007,00
16/01/2023 17:006,15
16/01/2023 18:006,60
16/01/2023 19:007,35
16/01/2023 20:007,30
16/01/2023 21:007,20
16/01/2023 22:006,75
16/01/2023 23:006,00
17/01/2023 00:006,00
17/01/2023 01:006,40
17/01/2023 02:006,75
17/01/2023 03:006,40
17/01/2023 04:005,50
17/01/2023 05:003,70
17/01/2023 06:003,75
17/01/2023 07:002,85
17/01/2023 08:001,90
17/01/2023 09:000,80
17/01/2023 10:002,50
17/01/2023 11:000,85
17/01/2023 12:002,35
17/01/2023 13:002,10
17/01/2023 14:001,90
17/01/2023 15:002,80
17/01/2023 16:001,45
17/01/2023 17:000,10
17/01/2023 18:00-0,65
17/01/2023 19:00-0,60
17/01/2023 20:00-0,90
17/01/2023 21:00-0,75
17/01/2023 22:00-1,35
17/01/2023 23:00-1,50
18/01/2023 00:00-1,25
18/01/2023 01:00-1,30
18/01/2023 02:00-1,55
18/01/2023 03:00-1,90
18/01/2023 04:00-1,60
18/01/2023 05:00-1,35
18/01/2023 06:00-2,25
18/01/2023 07:00-2,55
18/01/2023 08:00-2,95
18/01/2023 09:00-2,85
18/01/2023 10:00-2,45
18/01/2023 11:00-0,90
18/01/2023 12:00-0,35
18/01/2023 13:00-0,30
18/01/2023 14:00-0,70
18/01/2023 15:00-0,50
18/01/2023 16:00-0,10
18/01/2023 17:000,15
18/01/2023 18:00-1,25
18/01/2023 19:00-1,75
18/01/2023 20:00-1,70
18/01/2023 21:00-1,50
18/01/2023 22:00-1,45
18/01/2023 23:00-1,50
19/01/2023 00:00-2,55
19/01/2023 01:00-3,35
19/01/2023 02:00-1,55
19/01/2023 03:00-2,00
19/01/2023 04:00-4,25
19/01/2023 05:00-5,75
19/01/2023 06:00-7,15
19/01/2023 07:00-7,15
19/01/2023 08:00-7,30
19/01/2023 09:00-6,35
19/01/2023 10:00-3,00
19/01/2023 11:00-0,30
19/01/2023 12:000,20
19/01/2023 13:000,15
19/01/2023 14:000,00
19/01/2023 15:000,80
19/01/2023 16:001,45
19/01/2023 17:001,35
19/01/2023 18:001,30
19/01/2023 19:000,80
19/01/2023 20:000,50
19/01/2023 21:000,30
19/01/2023 22:00-0,20
19/01/2023 23:000,05
20/01/2023 00:003,00
20/01/2023 01:004,00
20/01/2023 02:003,00
20/01/2023 03:002,35
20/01/2023 04:002,05
20/01/2023 05:001,90
20/01/2023 06:000,65
20/01/2023 07:000,30
20/01/2023 08:00-0,70
20/01/2023 09:00-1,30
20/01/2023 10:00-0,10
20/01/2023 11:000,55
20/01/2023 12:002,15
20/01/2023 13:005,10
20/01/2023 14:004,75
20/01/2023 15:004,05
20/01/2023 16:003,40
20/01/2023 17:002,85
20/01/2023 18:001,55
20/01/2023 19:000,70
20/01/2023 20:000,20
20/01/2023 21:000,20
20/01/2023 22:00-0,10
20/01/2023 23:000,10
21/01/2023 00:000,10
21/01/2023 01:000,15
21/01/2023 02:000,20
21/01/2023 03:000,30
21/01/2023 04:000,30
21/01/2023 05:000,30
21/01/2023 06:000,30
21/01/2023 07:000,35
21/01/2023 08:000,35
21/01/2023 09:000,40
21/01/2023 10:002,10
21/01/2023 11:003,30
21/01/2023 12:004,45
21/01/2023 13:005,60
21/01/2023 14:004,30
21/01/2023 15:003,30
21/01/2023 16:003,00
21/01/2023 17:002,35
21/01/2023 18:001,00
21/01/2023 19:000,90
21/01/2023 20:001,00
21/01/2023 21:001,00
21/01/2023 22:000,55
21/01/2023 23:000,35
22/01/2023 00:00-0,20
22/01/2023 01:00-0,85
22/01/2023 02:00-1,00
22/01/2023 03:00-1,45
22/01/2023 04:00-1,70
22/01/2023 05:00-1,30
22/01/2023 06:00-3,40
22/01/2023 07:00-3,95
22/01/2023 08:00-4,95
22/01/2023 09:00-3,55
22/01/2023 10:000,60
22/01/2023 11:003,05
22/01/2023 12:003,30
22/01/2023 13:003,40
22/01/2023 14:004,05
22/01/2023 15:003,55
22/01/2023 16:003,45
22/01/2023 17:001,75
22/01/2023 18:00-0,20
22/01/2023 19:00-0,25
22/01/2023 20:00-1,95
22/01/2023 21:00-3,35
22/01/2023 22:00-4,20
22/01/2023 23:00-5,30
23/01/2023 00:00-6,15
23/01/2023 01:00-6,00
23/01/2023 02:00-6,40
23/01/2023 03:00-5,90
23/01/2023 04:00-4,85
23/01/2023 05:00-5,90
23/01/2023 06:00-5,25
23/01/2023 07:000,00
23/01/2023 08:000,25
23/01/2023 09:000,90
23/01/2023 10:001,65
23/01/2023 11:002,00
23/01/2023 12:001,95
23/01/2023 13:001,85
23/01/2023 14:002,60
23/01/2023 15:002,60
23/01/2023 16:001,35
23/01/2023 17:001,10
23/01/2023 18:000,95
23/01/2023 19:000,95
23/01/2023 20:000,75
23/01/2023 21:001,15
23/01/2023 22:001,30
23/01/2023 23:001,40
24/01/2023 00:001,15
24/01/2023 01:001,15
24/01/2023 02:000,80
24/01/2023 03:000,70
24/01/2023 04:000,55
24/01/2023 05:000,40
24/01/2023 06:000,60
24/01/2023 07:000,65
24/01/2023 08:001,10
24/01/2023 09:001,35
24/01/2023 10:002,80
24/01/2023 11:003,70
24/01/2023 12:003,30
24/01/2023 13:004,30
24/01/2023 14:004,60
24/01/2023 15:004,40
24/01/2023 16:003,90
24/01/2023 17:002,45
24/01/2023 18:001,15
24/01/2023 19:000,70
24/01/2023 20:00-1,85
24/01/2023 21:00-2,80
24/01/2023 22:00-3,45
24/01/2023 23:00-4,30
25/01/2023 00:00-4,60
25/01/2023 01:00-4,80
25/01/2023 02:00-5,15
25/01/2023 03:00-5,55
25/01/2023 04:00-5,70
25/01/2023 05:00-5,60
25/01/2023 06:00-5,30
25/01/2023 07:00-5,75
25/01/2023 08:00-4,60
25/01/2023 09:00-3,60
25/01/2023 10:001,10
25/01/2023 11:004,00
25/01/2023 12:004,60
25/01/2023 13:005,15
25/01/2023 14:005,20
25/01/2023 15:004,80
25/01/2023 16:004,00
25/01/2023 17:002,55
25/01/2023 18:001,60
25/01/2023 19:001,40
25/01/2023 20:001,65
25/01/2023 21:001,90
25/01/2023 22:002,10
25/01/2023 23:002,30
26/01/2023 00:002,00
26/01/2023 01:002,05
26/01/2023 02:002,00
26/01/2023 03:002,00
26/01/2023 04:001,80
26/01/2023 05:001,20
26/01/2023 06:000,90
26/01/2023 07:001,35
26/01/2023 08:000,10
26/01/2023 09:001,75
26/01/2023 10:001,85
26/01/2023 11:002,50
26/01/2023 12:003,40
26/01/2023 13:004,85
26/01/2023 14:005,40
26/01/2023 15:005,50
26/01/2023 16:006,20
26/01/2023 17:004,45
26/01/2023 18:002,75
26/01/2023 19:002,05
26/01/2023 20:001,65
26/01/2023 21:001,85
26/01/2023 22:001,90
26/01/2023 23:001,60
27/01/2023 00:001,60
27/01/2023 01:001,75
27/01/2023 02:001,80
27/01/2023 03:001,60
27/01/2023 04:000,75
27/01/2023 05:000,75
27/01/2023 06:000,40
27/01/2023 07:00-0,10
27/01/2023 08:00-0,20
27/01/2023 09:000,10
27/01/2023 10:000,20
27/01/2023 11:000,50
27/01/2023 12:002,05
27/01/2023 13:002,85
27/01/2023 14:001,75
27/01/2023 15:002,05
27/01/2023 16:002,10
27/01/2023 17:001,30
27/01/2023 18:000,25
27/01/2023 19:000,35
27/01/2023 20:00-0,40
27/01/2023 21:00-0,80
27/01/2023 22:00-0,80
27/01/2023 23:00-0,80
28/01/2023 00:00-0,85
28/01/2023 01:00-0,90
28/01/2023 02:00-0,65
28/01/2023 03:00-0,75
28/01/2023 04:00-1,00
(fichero .CSV)
© 2023 saihduero.es